Temperature
8 8 8 7 7 7 6 6 6 8 9 10 10 9 10 10 9 9 8 8 7 7 7 7 6 6 6 6 6 6 6 6 5 5 5 5 5 4 4 4 4 4 4 4
6 7 8 7 7 7 7 7 7 7 8 9 9 10 9 9 9 8 8 7 7 7 7 6 6 6 6 6 5 5 5 5 5 5 4 4 4 4 4 4 3 3 3 3
5 7 6 5 7 7 7 7 7 7 7 8 8 8 8 8 8 8 7 7 6 6 6 6 6 5 5 5 5 5 5 4 4 4 4 4 4 3 3 3 3 3 3 3
4 5 4 7 9 9 8 8 8 7 7 7 7 7 7 7 7 7 7 6 6 5 5 5 5 5 5 5 4 4 4 4 4 4 3 3 3 3 3 3 3 3 3 3
4 4 5 8 8 8 7 6 7 7 7 7 7 6 6 7 6 6 6 6 5 5 5 5 5 4 4 4 4 3 3 3 3 3 3 3 3 2 2 2 2 2 2 2
4 4 4 7 6 7 7 5 6 6 6 6 6 4 5 6 6 6 5 5 5 5 4 4 4 4 4 3 3 3 3 3 3 2 2 2 2 2 2 2 2 2 2 2
3 3 4 6 6 6 5 5 6 6 6 6 5 4 5 5 5 5 5 5 4 4 4 4 4 3 3 3 3 2 2 2 2 2 2 2 2 2 1 1 1 1 1 1
3 3 4 5 5 5 4 5 5 5 5 5 5 4 4 4 4 4 4 4 4 3 3 3 3 3 2 2 2 2 2 1 1 1 1 1 1 1 1 1 1 1 0 1
4 4 5 5 5 5 5 5 5 4 4 4 4 4 4 3 3 3 3 3 3 3 2 2 2 2 2 2 2 1 1 1 1 1 1 1 1 0 0 0 0 0 -0 -0
3 4 5 5 5 5 4 4 4 4 3 3 3 3 3 3 2 2 2 2 2 2 2 2 2 2 2 1 1 1 1 1 0 0 0 0 0 0 -0 -0 -0 -0 -0 -0
2 3 4 5 4 4 4 3 3 3 3 2 2 2 2 2 2 2 1 1 1 1 1 1 1 1 1 1 1 0 0 0 -0 -0 -0 -0 -0 -0 -0 -0 -0 -1 -1 -1
2 3 3 3 3 3 3 2 2 2 2 2 1 1 1 1 1 1 1 1 1 1 1 1 1 1 1 0 0 -0 -0 -0 -0 -1 -1 -1 -1 -1 -1 -1 -1 -1 -1 -1
3 3 3 3 2 2 2 2 1 1 1 1 1 1 1 1 1 0 0 0 0 0 0 0 0 0 0 -0 -0 -0 -0 -1 -1 -1 -1 -1 -1 -1 -1 -1 -1 -1 -1 -2
2 2 2 2 1 1 1 1 1 1 0 0 0 0 0 -0 -0 -0 -0 -0 -0 -0 -0 -0 -0 -1 -1 -1 -1 -1 -1 -1 -1 -1 -1 -2 -2 -2 -2 -2 -2 -2 -2 -2
1 1 1 1 1 1 0 0 -0 -0 -0 -0 -0 -0 -1 -1 -1 -1 -1 -1 -1 -1 -1 -1 -1 -1 -1 -1 -2 -2 -2 -2 -2 -2 -2 -2 -2 -2 -3 -3 -3 -3 -2 -2
0 0 0 -0 -0 -0 -0 -0 -1 -1 -1 -1 -1 -1 -1 -1 -1 -1 -1 -1 -1 -1 -1 -1 -1 -1 -2 -2 -2 -2 -2 -2 -2 -2 -2 -2 -3 -3 -3 -3 -3 -3 -3 -3
-0 -1 -1 -1 -1 -1 -1 -1 -1 -1 -1 -1 -1 -1 -2 -2 -2 -2 -2 -2 -2 -2 -2 -2 -2 -2 -2 -2 -2 -2 -2 -2 -3 -3 -3 -3 -3 -3 -3 -3 -4 -4 -3 -3
-1 -1 -1 -1 -1 -1 -1 -1 -1 -2 -2 -2 -2 -2 -2 -2 -2 -2 -2 -2 -3 -2 -2 -2 -2 -2 -2 -2 -3 -3 -3 -3 -3 -3 -3 -3 -3 -4 -4 -4 -4 -4 -4 -4
-1 -1 -1 -1 -2 -2 -2 -2 -2 -2 -2 -2 -2 -2 -2 -2 -2 -3 -3 -3 -3 -3 -2 -3 -3 -3 -3 -3 -3 -3 -3 -3 -3 -3 -4 -4 -4 -4 -4 -4 -4 -4 -4 -4
-2 -2 -2 -2 -2 -2 -2 -2 -2 -2 -2 -2 -2 -3 -3 -3 -3 -3 -3 -3 -3 -3 -3 -3 -3 -3 -3 -3 -3 -4 -4 -4 -4 -4 -4 -4 -4 -4 -4 -4 -4 -4 -5 -4
-2 -2 -2 -2 -2 -2 -2 -2 -2 -2 -2 -2 -3 -3 -3 -3 -3 -3 -4 -3 -3 -3 -3 -3 -4 -4 -4 -4 -4 -4 -4 -4 -4 -4 -4 -4 -5 -5 -5 -5 -5 -5 -5 -5
-2 -2 -2 -2 -2 -2 -2 -3 -3 -3 -3 -3 -3 -3 -3 -4 -3 -4 -4 -4 -4 -4 -4 -4 -4 -4 -4 -4 -4 -4 -4 -4 -5 -5 -5 -5 -5 -5 -5 -5 -5 -5 -5 -5
-3 -3 -3 -3 -3 -3 -3 -3 -3 -3 -3 -3 -3 -3 -4 -4 -4 -4 -4 -4 -4 -4 -4 -4 -4 -4 -4 -5 -5 -5 -5 -5 -5 -5 -5 -5 -5 -5 -5 -5 -5 -5 -5 -5
-3 -3 -3 -3 -3 -3 -3 -3 -3 -3 -4 -4 -4 -4 -4 -4 -4 -4 -4 -5 -5 -5 -5 -5 -5 -5 -5 -5 -5 -5 -5 -5 -5 -5 -5 -5 -6 -6 -6 -6 -5 -5 -6 -6
-3 -4 -4 -4 -4 -4 -4 -4 -4 -4 -4 -4 -4 -4 -4 -5 -5 -5 -5 -5 -5 -5 -5 -5 -5 -5 -5 -5 -5 -5 -5 -5 -5 -6 -6 -6 -6 -6 -6 -6 -6 -6 -6 -6
-4 -4 -4 -4 -4 -4 -4 -4 -4 -4 -4 -5 -4 -5 -5 -5 -5 -5 -5 -5 -5 -6 -5 -5 -5 -5 -5 -6 -6 -5 -5 -5 -6 -6 -6 -6 -6 -6 -6 -6 -6 -6 -6 -6
-4 -5 -5 -4 -4 -5 -5 -5 -5 -5 -5 -5 -5 -5 -5 -5 -5 -6 -6 -6 -6 -6 -6 -6 -6 -6 -6 -6 -6 -6 -6 -6 -6 -6 -6 -6 -6 -6 -6 -6 -6 -6 -6 -6
Wind_Speed
9 8 7 8 9 9 11 10 9 9 10 10 5 3 2 1 2 2 3 3 3 3 3 3 4 4 3 4 4 4 4 4 4 4 4 3 3 3 3 4 4 4 4 5
7 9 10 12 12 13 14 13 15 15 15 9 5 2 2 2 2 2 2 2 2 2 3 3 3 3 3 3 4 4 4 4 4 4 4 4 4 4 4 4 4 4 5 5
5 4 6 10 11 14 11 10 10 13 10 4 4 2 2 2 1 1 1 2 2 2 2 2 2 3 3 3 3 3 4 4 4 4 4 4 4 4 5 5 4 5 5 5
4 3 9 7 2 5 8 9 9 8 5 2 2 2 2 2 2 2 1 1 1 1 1 1 1 2 2 2 3 4 4 5 5 5 5 4 4 5 5 4 5 5 6 6
4 6 9 6 2 2 3 4 2 4 4 2 2 2 3 1 1 1 1 1 2 1 1 2 2 2 2 2 3 4 5 5 5 5 5 5 5 6 5 5 5 5 5 6
5 6 7 2 1 2 2 3 1 1 2 1 1 2 3 1 1 1 1 1 1 1 1 2 2 2 2 3 4 5 5 5 4 4 5 6 6 6 5 5 5 5 6 6
9 8 7 2 2 2 2 3 2 2 2 2 2 4 3 3 2 1 1 1 1 1 2 2 2 2 3 4 5 5 4 4 4 4 5 5 5 5 5 4 5 5 6 6
7 8 7 2 3 2 2 1 2 3 3 3 3 4 4 3 2 2 2 2 1 1 3 3 2 3 4 5 4 3 3 4 4 5 5 4 5 5 5 5 5 6 6 6
6 6 2 3 2 1 1 2 3 3 4 4 5 5 4 4 3 3 3 3 2 3 3 4 3 3 5 5 3 3 3 4 4 4 5 5 5 5 5 5 5 5 5 6
5 5 3 3 2 1 2 3 4 4 5 5 6 5 5 4 4 3 3 3 3 3 4 4 4 4 4 4 3 4 4 4 4 4 5 4 4 4 5 5 5 5 5 6
8 8 7 5 3 3 4 4 5 5 5 5 6 6 5 5 5 4 4 4 3 4 5 5 4 4 4 4 4 4 4 4 4 4 5 5 5 5 6 6 6 6 6 5
7 5 5 6 5 4 4 4 5 5 5 5 5 6 6 5 5 4 5 4 5 5 5 5 5 5 5 4 4 4 4 4 4 4 4 4 4 5 7 8 9 10 9 8
6 5 5 6 5 4 4 4 4 4 5 6 5 5 5 5 4 4 5 6 6 6 6 6 5 6 5 4 4 5 6 5 4 4 4 4 4 4 5 6 8 9 10 11
5 5 6 6 5 5 4 4 4 5 5 5 5 5 5 5 5 6 6 6 5 5 6 6 6 6 5 5 5 6 6 6 6 5 5 5 5 5 5 5 6 6 7 10
4 4 5 5 5 4 3 3 4 5 6 6 5 5 5 6 6 7 6 5 5 5 6 6 6 7 5 5 5 6 6 5 5 5 5 5 5 5 5 6 6 6 5 6
4 4 4 4 5 4 4 4 5 6 6 6 5 5 6 6 6 7 6 5 5 7 7 6 7 7 5 5 6 5 5 8 7 5 5 5 5 5 5 6 6 6 6 5
4 4 4 4 4 4 4 5 5 6 6 6 6 6 6 6 6 7 7 6 6 7 7 7 7 6 5 5 5 5 5 6 8 6 5 5 5 6 6 6 6 6 6 6
3 3 4 4 4 5 5 5 5 6 6 6 6 6 6 6 7 8 7 6 6 7 7 7 7 6 6 5 5 4 4 5 5 5 5 5 6 6 6 6 6 7 5 6
3 3 4 4 5 4 5 6 6 6 6 5 5 6 7 7 7 7 7 6 7 8 8 7 8 6 6 6 6 4 5 5 5 5 5 8 7 6 6 6 6 6 6 5
3 4 5 5 5 5 6 6 6 6 6 5 6 7 7 7 7 7 7 7 7 7 7 7 6 5 6 6 6 4 5 5 6 5 5 5 6 6 6 6 6 5 5 5
5 5 6 6 6 6 7 7 6 7 7 6 6 7 8 8 7 6 6 8 7 6 6 7 5 5 5 5 6 4 5 5 5 5 6 6 6 6 5 5 5 5 5 5
5 5 6 6 6 7 6 5 6 6 7 6 6 7 7 8 7 7 7 7 7 7 5 4 4 6 7 7 4 4 5 5 5 5 5 5 5 5 5 5 5 5 5 4
5 6 6 6 6 7 7 6 6 6 7 7 7 7 7 7 6 6 7 5 4 7 5 5 7 9 10 6 4 5 5 6 5 5 5 5 5 5 5 5 5 5 5 4
6 6 6 6 6 6 7 8 6 6 6 7 7 7 6 6 6 5 5 8 9 9 6 7 10 11 10 5 4 5 5 5 5 5 5 5 5 4 5 5 5 4 5 5
6 6 6 6 6 6 7 7 6 6 6 5 6 6 5 4 5 6 5 6 9 9 6 8 10 10 6 4 4 4 4 5 5 4 4 4 5 4 4 4 5 4 4 4
6 6 6 6 6 6 5 5 5 5 5 6 6 5 4 4 5 5 5 6 7 8 6 5 5 6 4 4 4 4 4 5 5 5 4 4 4 4 4 4 5 4 4 4
5 5 5 5 5 4 4 4 5 6 5 6 7 6 5 5 5 5 5 5 5 5 5 5 4 4 4 4 4 4 4 4 4 4 4 4 4 4 4 5 4 4 3 3
Wind_Direction
266 279 271 253 240 225 224 223 232 254 260 264 257 248 238 218 187 189 189 186 195 197 197 182 182 185 184 179 179 182 192 206 215 214 208 208 215 221 226 232 236 239 243 245
267 253 256 259 248 238 238 239 245 260 269 275 288 292 274 261 218 208 210 208 210 206 199 188 185 187 185 192 193 191 203 216 219 214 210 210 214 221 228 236 240 240 242 244
262 264 292 262 237 230 229 226 226 243 254 278 287 282 278 268 243 227 248 235 221 224 213 195 193 190 197 204 198 203 214 219 221 215 214 214 216 223 230 235 241 245 246 246
267 277 247 244 208 209 226 239 228 237 257 275 289 314 308 279 252 255 258 236 243 244 245 217 210 210 200 199 204 216 224 225 224 217 218 219 222 229 234 234 238 243 245 246
225 247 267 259 242 186 217 266 255 246 264 271 310 321 288 263 235 249 254 236 228 227 237 227 228 216 196 219 224 227 230 229 225 216 218 221 228 234 236 237 243 243 243 243
223 236 244 245 74 56 75 261 311 307 297 293 53 277 267 320 325 297 316 269 236 244 255 240 237 207 206 231 231 236 236 233 227 221 224 227 231 236 236 235 242 245 250 246
231 242 259 269 133 103 191 248 357 357 331 303 252 247 279 323 324 315 321 305 287 277 266 255 246 224 228 237 243 240 235 232 230 227 230 235 238 237 232 235 240 245 251 253
213 232 247 157 124 181 238 309 332 331 323 304 287 295 302 295 292 295 292 281 264 259 266 266 253 238 241 243 249 246 232 234 235 234 234 235 232 239 233 228 238 246 250 256
211 226 262 148 185 232 344 311 313 317 316 303 288 282 285 283 281 280 275 269 260 252 265 265 251 234 242 247 240 244 237 236 240 240 237 233 228 233 237 231 235 245 244 252
266 265 281 268 266 281 288 286 301 303 300 297 285 283 288 285 283 283 276 268 258 248 253 261 256 248 245 246 234 230 239 243 241 241 242 238 238 233 233 233 235 241 247 251
268 280 293 274 281 300 304 301 299 295 292 292 290 285 281 278 274 270 272 268 258 251 253 258 257 254 250 246 236 232 238 243 244 244 246 243 243 242 242 239 235 237 242 241
254 271 276 289 316 324 310 301 298 297 296 288 277 275 276 273 269 269 267 266 260 255 257 260 258 258 255 243 234 231 239 241 239 240 245 245 250 268 259 253 258 256 255 255
267 291 290 297 310 313 299 297 294 287 284 286 284 278 275 274 272 269 266 261 256 256 258 259 258 258 257 248 238 232 237 241 241 239 239 241 246 252 272 280 266 261 261 263
281 287 285 285 290 294 293 295 295 290 284 280 279 279 276 275 273 268 263 259 257 259 259 257 258 260 257 249 243 239 239 241 240 240 237 236 239 246 251 260 273 274 264 262
280 273 272 287 292 291 291 294 293 289 288 286 283 279 278 277 275 274 271 265 261 260 261 259 260 263 257 249 247 244 241 241 236 235 235 237 240 244 250 253 259 267 271 267
282 281 276 278 284 289 289 284 281 286 291 291 290 283 278 276 276 278 276 267 260 261 261 258 260 263 255 246 246 246 245 246 241 237 237 240 241 244 248 249 253 255 254 257
275 274 275 275 275 280 284 283 280 282 285 286 287 287 287 285 284 281 278 269 261 261 259 257 263 266 258 248 242 243 244 246 242 240 236 237 239 241 245 247 250 253 253 252
258 268 274 271 273 282 288 289 286 284 283 283 289 289 285 280 278 279 280 280 278 276 269 263 263 265 260 252 247 244 243 243 236 234 236 238 242 240 241 246 249 254 261 259
277 275 280 279 274 275 280 285 285 282 283 284 283 279 277 277 276 278 281 278 273 275 277 267 263 260 256 252 251 244 241 243 244 242 239 245 250 245 243 245 249 250 252 254
293 289 287 288 287 282 280 280 281 281 280 278 278 281 283 282 279 278 277 273 265 264 272 272 268 261 257 253 251 243 238 239 243 245 242 241 243 245 245 247 248 249 250 248
286 285 284 283 283 281 274 274 276 279 281 276 272 275 279 281 279 274 275 281 279 272 270 270 266 262 260 259 256 246 239 240 243 245 245 245 245 245 245 246 248 249 248 248
281 282 282 281 282 284 282 275 272 275 280 280 276 275 279 283 285 281 267 265 274 280 279 268 264 265 270 271 255 248 245 246 248 247 245 244 244 245 245 244 247 248 247 245
277 276 279 281 280 284 289 286 277 273 275 276 276 276 275 276 275 278 284 282 277 283 285 270 273 276 277 274 258 251 249 249 247 244 242 242 243 242 243 245 245 244 244 242
277 277 276 280 283 286 288 287 283 277 273 274 273 269 270 279 282 269 268 284 291 291 285 277 282 282 281 272 260 256 253 251 249 246 243 241 240 241 242 242 242 241 241 240
275 278 279 280 280 277 276 281 288 286 283 282 280 275 269 261 268 280 283 284 289 294 290 287 288 287 283 271 263 260 258 256 255 252 244 242 240 241 242 240 239 239 238 238
270 271 271 268 268 273 277 280 283 285 288 292 293 289 287 284 279 282 286 286 285 293 294 287 285 282 276 270 268 267 266 269 269 261 249 245 243 242 243 242 241 242 240 239
275 274 278 283 283 277 278 279 281 285 287 289 294 295 294 294 292 291 290 290 291 289 289 288 286 283 281 279 278 275 272 268 265 261 255 249 247 246 244 240 241 239 233 230
Height
1477 1475 1475 1476 1477 1479 1481 1479 1480 1469 1464 1459 1459 1459 1460 1461 1461 1462 1463 1464 1464 1465 1466 1467 1467 1468 1469 1469 1470 1470 1470 1471 1471 1471 1472 1472 1471 1471 1471 1471 1470 1470 1469 1469
1479 1473 1472 1472 1470 1470 1471 1470 1468 1465 1461 1455 1456 1457 1458 1459 1459 1460 1460 1461 1462 1462 1463 1464 1464 1465 1465 1465 1466 1466 1466 1466 1467 1467 1467 1467 1467 1467 1466 1466 1465 1465 1464 1463
1479 1470 1471 1471 1460 1459 1460 1457 1459 1461 1457 1454 1455 1455 1456 1456 1457 1457 1458 1459 1459 1459 1460 1460 1461 1461 1461 1461 1462 1462 1462 1462 1462 1462 1462 1462 1462 1462 1461 1461 1461 1460 1459 1459
1479 1476 1479 1456 1447 1448 1450 1450 1452 1451 1451 1452 1453 1453 1454 1454 1455 1455 1455 1456 1456 1456 1456 1457 1457 1458 1458 1458 1457 1457 1457 1457 1457 1457 1457 1457 1457 1456 1456 1456 1455 1455 1454 1454
1478 1475 1463 1450 1447 1448 1449 1451 1449 1449 1450 1450 1451 1451 1452 1452 1452 1452 1453 1453 1453 1453 1453 1453 1453 1453 1453 1453 1453 1453 1452 1452 1452 1452 1452 1452 1452 1451 1451 1451 1450 1449 1449 1448
1474 1472 1465 1449 1448 1446 1449 1454 1449 1448 1448 1448 1449 1453 1451 1449 1449 1449 1449 1449 1449 1449 1449 1449 1449 1449 1449 1448 1448 1448 1448 1448 1448 1448 1447 1447 1447 1446 1446 1445 1445 1444 1443 1442
1470 1467 1457 1448 1447 1447 1456 1454 1449 1447 1447 1448 1449 1449 1448 1447 1447 1446 1446 1446 1446 1446 1446 1445 1445 1445 1444 1443 1443 1443 1443 1443 1443 1443 1442 1442 1441 1441 1440 1440 1439 1438 1438 1437
1465 1464 1458 1447 1447 1450 1450 1448 1447 1446 1446 1446 1446 1446 1445 1445 1444 1443 1443 1443 1442 1442 1442 1441 1441 1441 1440 1439 1439 1439 1438 1438 1437 1437 1437 1436 1436 1435 1435 1434 1433 1432 1432 1431
1453 1451 1446 1444 1445 1446 1446 1445 1445 1445 1444 1444 1443 1442 1442 1441 1440 1440 1439 1439 1438 1438 1437 1437 1437 1436 1435 1434 1434 1433 1433 1432 1432 1432 1432 1431 1431 1430 1429 1428 1428 1427 1426 1425
1447 1443 1442 1443 1443 1443 1443 1443 1442 1442 1441 1441 1440 1439 1438 1437 1437 1436 1435 1435 1434 1433 1432 1432 1432 1431 1431 1430 1429 1429 1428 1427 1427 1427 1426 1426 1425 1424 1424 1423 1422 1421 1420 1419
1445 1442 1441 1439 1440 1440 1440 1439 1439 1438 1437 1437 1436 1435 1434 1433 1432 1432 1431 1430 1430 1429 1428 1427 1427 1426 1426 1425 1425 1424 1423 1422 1422 1421 1421 1420 1419 1419 1418 1418 1418 1417 1415 1414
1442 1440 1440 1438 1437 1437 1436 1436 1435 1434 1433 1432 1432 1431 1430 1429 1428 1427 1426 1425 1425 1424 1423 1422 1421 1421 1420 1420 1419 1419 1418 1417 1417 1416 1415 1414 1414 1413 1412 1412 1412 1411 1410 1409
1436 1436 1435 1434 1434 1434 1433 1432 1432 1431 1429 1428 1427 1426 1425 1424 1423 1422 1421 1420 1419 1418 1418 1417 1416 1415 1415 1414 1414 1413 1412 1411 1411 1411 1410 1409 1408 1407 1406 1406 1405 1405 1404 1403
1432 1432 1431 1431 1431 1430 1430 1429 1428 1427 1425 1424 1423 1422 1421 1419 1418 1417 1416 1415 1414 1413 1412 1411 1410 1409 1409 1408 1408 1407 1407 1406 1406 1405 1404 1403 1403 1402 1401 1400 1399 1397 1398 1397
1428 1428 1428 1427 1427 1426 1426 1425 1424 1423 1421 1420 1419 1417 1416 1414 1413 1411 1411 1410 1409 1408 1406 1405 1404 1403 1403 1402 1402 1401 1401 1400 1400 1399 1398 1398 1397 1396 1395 1395 1393 1392 1391 1391
1424 1424 1424 1424 1423 1423 1422 1421 1420 1419 1417 1416 1414 1413 1411 1410 1408 1406 1405 1404 1403 1401 1400 1400 1398 1398 1397 1396 1396 1395 1394 1394 1393 1393 1392 1391 1391 1390 1389 1389 1388 1387 1386 1385
1421 1421 1421 1420 1419 1419 1418 1417 1416 1415 1413 1412 1410 1408 1407 1405 1403 1401 1400 1399 1397 1396 1395 1394 1393 1392 1391 1391 1390 1389 1388 1387 1387 1386 1386 1385 1384 1384 1383 1383 1382 1381 1380 1380
1418 1418 1417 1417 1416 1415 1414 1413 1412 1411 1409 1407 1406 1404 1402 1400 1398 1396 1395 1393 1392 1390 1389 1388 1387 1386 1385 1384 1384 1383 1382 1381 1381 1380 1379 1379 1378 1378 1377 1377 1376 1375 1375 1375
1415 1414 1414 1413 1413 1412 1410 1409 1408 1406 1405 1403 1401 1399 1397 1395 1393 1392 1390 1388 1386 1384 1383 1382 1381 1380 1379 1378 1378 1377 1376 1375 1374 1374 1373 1373 1372 1372 1371 1371 1370 1370 1370 1369
1413 1412 1411 1410 1409 1408 1407 1405 1403 1402 1400 1398 1396 1394 1392 1390 1389 1387 1385 1383 1381 1379 1378 1377 1376 1374 1373 1372 1372 1371 1370 1369 1368 1368 1367 1367 1366 1366 1365 1365 1365 1364 1364 1364
1410 1409 1408 1407 1405 1404 1402 1401 1399 1397 1395 1394 1392 1389 1387 1385 1384 1382 1380 1377 1375 1375 1373 1372 1370 1369 1368 1367 1366 1365 1364 1363 1363 1362 1362 1361 1361 1360 1360 1360 1359 1359 1359 1359
1407 1406 1404 1403 1401 1399 1398 1396 1395 1393 1391 1389 1387 1385 1382 1380 1379 1377 1375 1373 1371 1370 1368 1366 1365 1364 1362 1361 1360 1359 1359 1358 1357 1357 1356 1356 1355 1355 1355 1354 1354 1354 1354 1353
1403 1402 1400 1399 1397 1395 1393 1392 1390 1388 1386 1384 1382 1380 1378 1376 1374 1372 1369 1368 1367 1365 1363 1362 1360 1359 1358 1356 1355 1354 1353 1352 1352 1351 1351 1351 1350 1350 1350 1349 1349 1349 1349 1349
1399 1398 1396 1395 1393 1391 1388 1386 1385 1383 1381 1379 1378 1376 1374 1371 1369 1367 1366 1363 1362 1360 1359 1357 1355 1354 1353 1351 1350 1349 1348 1347 1347 1346 1346 1346 1345 1345 1345 1345 1345 1345 1345 1345
1395 1393 1392 1390 1388 1386 1384 1382 1380 1378 1377 1374 1373 1371 1369 1367 1365 1362 1361 1359 1357 1355 1353 1352 1350 1349 1348 1346 1345 1344 1343 1342 1342 1341 1341 1341 1341 1340 1340 1340 1340 1340 1340 1340
1390 1389 1387 1385 1384 1382 1380 1378 1376 1374 1372 1370 1368 1366 1364 1363 1360 1358 1356 1354 1352 1350 1349 1347 1345 1344 1343 1341 1340 1339 1338 1337 1337 1336 1336 1336 1336 1336 1336 1336 1336 1336 1336 1336
1385 1384 1382 1380 1379 1377 1376 1374 1372 1370 1368 1366 1364 1362 1360 1358 1356 1354 1351 1349 1347 1346 1344 1342 1341 1340 1338 1337 1336 1335 1334 1333 1333 1332 1332 1332 1332 1332 1332 1332 1332 1332 1332 1332